Location: Oshawa
(43.9000°N, 78.8670°W)
Time: 10:55:16
(UTC-04:00)

Cosmos 839 Rocket - Visible Passes

Search period start: 23 May 2015 00:00
Search period end: 02 June 2015 00:00
Orbit: 962 x 2090 km, 65.9° (Epoch: 22 May)

Date Brightness Start Highest point End Pass type
(mag) Time Alt. Az. Time Alt. Az. Time Alt. Az.
23 May 6.9 00:06:02 10° WNW 00:13:02 20° WSW 00:20:02 10° SW visible
23 May 5.4 21:21:47 10° NNW 21:31:19 85° ENE 21:43:02 10° SSE visible
23 May 6.5 23:22:58 10° NW 23:31:21 29° WSW 23:40:00 11° SSW visible
24 May 6.2 22:40:26 10° NW 22:49:34 41° WSW 22:59:51 11° S visible
25 May 5.8 21:58:11 10° NW 22:07:41 56° WSW 22:19:00 10° S visible
26 May 7.3 00:02:44 10° WNW 00:07:01 12° W 00:10:26 10° WSW visible
26 May 5.6 21:16:05 10° NW 21:25:44 75° WSW 21:37:28 10° SSE visible
26 May 7.0 23:18:18 10° WNW 23:25:26 20° WSW 23:32:36 10° SW visible
27 May 6.7 22:35:16 10° NW 22:43:45 30° WSW 22:53:00 10° SSW visible
28 May 6.3 21:52:45 10° NW 22:01:58 42° WSW 22:12:31 10° S visible
29 May 6.0 21:10:29 10° NW 21:20:05 57° WSW 21:31:29 10° S visible
29 May 7.4 23:14:53 10° WNW 23:19:26 13° W 23:23:10 10° WSW visible
30 May 7.1 22:30:34 10° WNW 22:37:51 21° WSW 22:45:10 10° SW visible
31 May 6.8 21:47:34 10° NW 21:56:10 30° WSW 22:05:31 10° SSW visible
